Location: Belvedere Heights
(33.9836°N, 117.3109°W)
Time: 22:06:57
(UTC+00:00)

ARIANE 5 R/B - Visible Passes

Search period start: 04 December 2023 00:00
Search period end: 14 December 2023 00:00
Orbit: 748 x 793 km, 98.8° (Epoch: 03 December)

Date Brightness Start Highest point End Pass type
(mag) Time Alt. Az. Time Alt. Az. Time Alt. Az.
04 Dec 3.6 12:04:22 10° NNE 12:09:21 44° E 12:14:19 10° S visible
04 Dec 3.8 13:44:25 10° NNW 13:48:01 19° WNW 13:51:38 10° WSW visible
05 Dec 4.9 11:30:18 10° NE 11:34:02 20° E 11:37:45 10° SE visible
05 Dec 2.9 13:08:19 10° N 13:13:11 41° WNW 13:18:03 10° SW visible
06 Dec 2.5 12:32:56 10° NNE 12:38:10 87° ESE 12:43:24 10° SSW visible
07 Dec 3.9 11:58:09 10° NNE 12:03:00 38° E 12:07:49 10° SSE visible
07 Dec 3.6 13:37:49 10° NNW 13:41:45 22° WNW 13:45:42 10° WSW visible
08 Dec 5.1 11:24:21 10° NE 11:27:39 17° E 11:30:56 10° SE visible
08 Dec 2.7 13:01:53 10° N 13:06:53 48° WNW 13:11:53 10° SW visible
09 Dec 2.6 12:26:36 10° NNE 12:31:51 75° ESE 12:37:03 10° S visible
09 Dec 4.2 14:08:27 10° NW 14:10:11 12° WNW 14:11:57 10° W visible
10 Dec 4.1 11:51:57 10° NE 11:56:38 32° E 12:01:16 10° SSE visible
10 Dec 3.5 13:31:15 10° NNW 13:35:29 26° WNW 13:39:43 10° WSW visible
11 Dec 5.3 11:18:32 10° ENE 11:21:14 14° E 11:23:57 10° SE visible
11 Dec 2.5 12:55:28 10° N 13:00:35 56° WNW 13:05:40 10° SSW visible
12 Dec 2.9 12:20:18 10° NNE 12:25:30 64° ESE 12:30:39 10° S visible
12 Dec 4.1 14:01:25 10° NW 14:03:56 14° WNW 14:06:29 10° W visible
13 Dec 5.7 01:14:08 10° WSW 01:16:03 12° W 01:18:00 10° WNW visible
13 Dec 4.4 11:45:48 10° NE 11:50:15 28° E 11:54:39 10° SSE visible
13 Dec 3.3 13:24:43 10° N 13:29:11 30° WNW 13:33:39 10° SW visible
